#timestamp,LO_Frequency,Hit,StdDev 
1610712015.9,286046986.4,N
1610712035.7,286046986.6,N
1610712055.6,286046988.6,N
1610712075.4,286046993.8,N
1610712095.2,286046996.0,N
1610712115.1,286046997.8,N
1610712116.0,286046997.8,N
1610712135.8,286046995.7,N
1610712155.7,286046993.4,N
1610712175.5,286046997.8,N
1610712195.3,286046992.6,N
1610712215.2,286046996.8,N
1610712235.0,286046993.7,N
1610712235.9,286046993.7,N
1610712255.8,286046993.8,N
1610712275.6,286046991.6,N
1610712295.4,286046987.1,N
1610712315.3,286046992.4,N
1610712335.1,286046995.0,N
1610712355.8,286047000.5,N
1610712375.7,286047003.8,N
1610712395.5,286047006.0,N
1610712415.4,286047001.9,N
1610712435.2,286047008.9,N
1610712455.0,286047008.6,N
1610712455.9,286047008.6,N
1610712475.8,286047005.8,N
1610712495.6,286047001.9,N
1610712515.4,286046998.5,N
1610712535.3,286046999.2,N
1610712555.1,286047004.4,N
1610712575.9,286047000.6,N
1610712595.7,286047001.8,N
1610712615.5,286047007.2,N
1610712635.4,286047006.3,N
1610712655.2,286047007.3,N
1610712675.1,286047003.7,N
1610712676.0,286047003.7,N
1610712695.8,286047008.8,N
1610712715.6,286047020.2,Y
1610712735.5,286047016.9,P
1610712755.3,286047015.2,N
1610712775.2,286047013.5,N
1610712795.9,286047016.3,N
1610712815.7,286047016.0,N
1610712835.6,286047013.8,N
1610712855.4,286047012.9,N
1610712875.2,286047014.9,Y
1610712895.1,286047000.5,P
1610712896.0,286047000.5,N
1610712915.8,286047000.8,N
1610712935.7,286047002.2,N
1610712955.5,286046999.7,N
1610712975.3,286047000.9,N
1610712995.2,286046994.0,N
1610713015.0,286046990.5,N
1610713015.9,286046990.5,N
1610713035.7,286046993.1,N
1610713055.6,286046993.3,N
1610713075.4,286046994.3,N
1610713095.3,286046994.2,N
1610713115.1,286046996.3,N
1610713135.9,286046993.3,N
1610713155.7,286047003.3,N
1610713175.6,286047013.3,N
1610713195.4,286047018.8,N
1610713215.3,286047027.9,Y
1610713235.1,286047027.5,P
1610713255.8,286047023.3,N
1610713275.7,286047014.1,N
1610713295.5,286047011.4,N
1610713315.4,286047011.1,N
1610713335.2,286047006.2,N
1610713355.0,286047007.4,N
1610713355.9,286047007.4,N
1610713375.8,286047002.8,N
1610713395.6,286046993.7,N
1610713415.5,286046991.0,N
1610713435.3,286046993.3,N
1610713455.1,286046994.6,N
1610713475.9,286046996.2,N
1610713495.7,286046995.3,N
1610713515.5,286046999.0,N
1610713535.4,286047000.5,N
1610713555.2,286047004.5,N
1610713575.1,286047004.1,N
1610713576.0,286047004.1,N
1610713595.8,286046995.2,N
1610713645.7,286046995.3,E
1610713655.6,286046997.0,N
1610713675.4,286047001.9,P
1610713695.3,286047005.2,N
1610713715.1,286047006.5,N
1610713735.8,286047011.2,Y
1610713755.7,286047001.1,P
1610713775.5,286046994.9,P
1610713795.4,286046995.7,N
1610713815.2,286046994.8,N
1610713835.0,286046992.4,N
1610713835.9,286046992.4,N
1610713855.8,286046992.8,N
1610713875.6,286046989.2,N
1610713895.4,286046989.4,N
1610713915.3,286046989.1,N
1610713935.1,286046988.7,N
1610713955.9,286046986.3,Y
1610713975.7,286046994.3,P
1610713995.5,286046994.5,P
1610714015.4,286046989.4,P
1610714035.2,286046986.0,Y
1610714055.0,286046998.4,P
1610714056.0,286046998.4,N
1610714075.8,286047000.2,N
1610714095.6,286046998.6,N
1610714115.5,286046999.7,N
1610714135.3,286046999.9,N
1610714155.1,286047001.9,N
1610714175.9,286047003.0,N
1610714195.7,286047007.1,N
1610714215.5,286047009.4,N
1610714235.4,286047011.7,N
1610714255.2,286047012.2,N
1610714275.1,286047013.3,N
1610714276.0,286047013.3,N
1610714295.8,286047014.9,N
1610714315.6,286047016.1,N
1610714335.5,286047012.8,N
1610714355.3,286047009.0,N
1610714375.1,286047009.5,N
1610714395.9,286047011.9,N
1610714415.7,286047013.0,N
1610714435.6,286047016.2,N
1610714455.4,286047012.8,N
1610714475.2,286047013.9,N
1610714495.1,286047009.5,N
1610714496.0,286047009.5,N
1610714515.8,286047009.9,N
1610714535.6,286047005.1,N
1610714555.5,286047004.9,N
1610714575.3,286047003.1,N
1610714595.2,286047006.4,N
1610714615.9,286047009.9,N
1610714635.7,286047011.7,N
1610714655.6,286047009.8,N
1610714675.4,286047009.2,N
1610714695.2,286047003.9,N
1610714715.1,286047002.4,N
1610714716.0,286047002.4,N
1610714735.8,286047000.6,N
1610714755.7,286047003.9,N
1610714775.5,286047001.7,N
1610714795.3,286047003.1,N
1610714815.2,286047008.9,N
1610714835.0,286047011.5,N
1610714835.9,286047011.5,N
1610714855.8,286047016.7,Y
1610714875.6,286047007.6,P
1610714895.4,286047011.9,P
1610714915.3,286047014.1,P
1610714935.1,286047019.9,Y
1610714955.8,286047006.0,P
1610714975.7,286047006.9,P
1610714995.5,286047004.2,N
1610715015.4,286047001.1,N
1610715035.2,286047001.2,N
1610715055.0,286046998.1,N
1610715055.9,286046998.1,N
1610715075.8,286046992.9,N
1610715095.6,286046996.2,N
1610715115.4,286046992.4,N
1610715135.3,286046992.3,N
1610715155.1,286047000.6,N
1610715175.9,286047003.4,N
1610715195.7,286047001.0,N
1610715215.5,286046994.4,N
1610715235.4,286046990.1,N
1610715255.2,286046993.4,N
1610715275.0,286046998.3,N
1610715275.9,286046998.3,N
1610715295.8,286046996.5,N
1610715315.6,286046999.0,N
1610715335.5,286046999.4,N
1610715355.3,286046998.1,N
1610715375.1,286047010.5,N
1610715395.9,286047012.4,N
1610715415.7,286047010.5,N
1610715435.5,286047007.1,N
1610715455.4,286047006.6,N
1610715475.2,286047003.6,N
1610715495.1,286047000.1,N
1610715496.0,286047000.1,N
1610715515.8,286046998.2,N
1610715535.6,286046998.6,N
1610715555.5,286046997.7,N
1610715575.3,286046996.2,N
1610715595.1,286046995.8,N
